Tampa Macdill AFB, FL

1:42 AM EDT on June 23, 2017 (GMT -0400)
MacDill Air Force Base

Weather History for KMCF - March, 2013

Change the Weather History Date:

Sunday, March 17, 2013

  Actual Average Record
Temperature  
Mean Temperature 64 °F -  
Max Temperature 77 °F 75 °F 89 °F (2002)
Min Temperature 50 °F 57 °F 43 °F (2017)
Degree Days  
Heating Degree Days 2    
Growing Degree Days 14 (Base 50)    
Moisture  
Dew Point 57 °F    
Average Humidity 89    
Maximum Humidity 100    
Minimum Humidity 53    
Precipitation  
Precipitation 0.00 in - - ()
Sea Level Pressure  
Sea Level Pressure 30.08 in    
Wind  
Wind Speed 3 mph (South)    
Max Wind Speed 13 mph    
Max Gust Speed -    
Visibility 8 miles    
Events Fog , Rain    
Averages and records for this station are not official NWS values.
T = Trace of Precipitation, MM = Missing Value Source: NWS Daily Summary

Daily Weather History Graph

Daily Weather History Graph

Search for Another Location

Airport or City:

Trip Planner

Search our weather history database for the weather conditions in past years. The results will help you decide how hot, cold, wet, or windy it might be!

Date:

Astronomy

Mar. 17, 2013 Rise Set
Actual Time 7:37 AM EDT 7:39 PM EDT
Civil Twilight 7:13 AM EDT 8:03 PM EDT
Nautical Twilight 6:46 AM EDT 8:30 PM EDT
Astronomical Twilight 6:19 AM EDT 8:57 PM EDT
Moon 11:16 AM EDT (3/17) 12:19 AM EDT (3/17)
Length of Visible Light 12h 49m
Length of Day
12h 02m
Waxing Crescent, 31% of the Moon is Illuminated
Mar 17
Waxing Crescent
Mar 19
First Quarter
Mar 27
Full
Apr 3
Last Quarter
Apr 10
New

Hourly Weather History & Observations

Time (EDT) Temp. Dew Point Humidity Pressure Visibility Wind Dir Wind Speed Gust Speed Precip Events Conditions
12:58 AM 52.5 °F 50.9 °F 94% 30.12 in 10.0 mi Calm Calm - N/A   Clear
1:58 AM 52.0 °F 51.3 °F 97% 30.11 in 6.0 mi Calm Calm - N/A   Clear
2:58 AM 50.0 °F 49.3 °F 97% 30.11 in 5.0 mi Calm Calm - N/A   Clear
3:58 AM 52.9 °F 52.5 °F 99% 30.09 in 10.0 mi SE 4.6 mph - N/A   Clear
4:58 AM 55.8 °F 55.8 °F 100% 30.08 in 10.0 mi SSE 4.6 mph - N/A   Clear
5:43 AM 53.6 °F 53.6 °F 100% 30.08 in 2.0 mi Calm Calm - N/A   Partly Cloudy
5:48 AM 53.6 °F 53.6 °F 100% 30.08 in 0.8 mi Calm Calm - N/A   Partly Cloudy
5:53 AM 53.6 °F 53.6 °F 100% 30.08 in 0.5 mi Calm Calm - N/A Fog Fog
5:58 AM 53.4 °F 53.4 °F 100% 30.09 in 0.8 mi Calm Calm - N/A   Partly Cloudy
6:03 AM 53.6 °F 53.6 °F 100% 30.09 in 4.0 mi Calm Calm - N/A   Partly Cloudy
6:58 AM 52.0 °F 52.0 °F 100% 30.10 in 3.0 mi East 4.6 mph - N/A   Clear
7:03 AM 51.8 °F 51.8 °F 100% 30.10 in 2.0 mi East 4.6 mph - N/A   Partly Cloudy
7:08 AM 51.8 °F 50.0 °F 94% 30.10 in 2.0 mi East 4.6 mph - N/A   Scattered Clouds
7:18 AM 50.0 °F 50.0 °F 100% 30.10 in 3.0 mi East 3.5 mph - N/A   Mostly Cloudy
7:58 AM 51.3 °F 51.3 °F 100% 30.13 in 10.0 mi East 3.5 mph - N/A   Mostly Cloudy
8:58 AM 55.6 °F 55.6 °F 100% 30.13 in 10.0 mi East 4.6 mph - N/A   Scattered Clouds
9:58 AM 63.0 °F 58.3 °F 85% 30.14 in 10.0 mi ESE 9.2 mph - N/A   Partly Cloudy
10:58 AM 68.4 °F 58.8 °F 71% 30.16 in 10.0 mi SSE 9.2 mph - N/A   Mostly Cloudy
11:58 AM 72.1 °F 57.2 °F 59% 30.15 in 10.0 mi South 8.1 mph - N/A   Partly Cloudy
12:58 PM 73.2 °F 58.1 °F 59% 30.13 in 10.0 mi SSE 5.8 mph - N/A   Scattered Clouds
1:58 PM 77.0 °F 58.5 °F 53% 30.11 in 10.0 mi SW 3.5 mph - N/A   Mostly Cloudy
2:58 PM 76.3 °F 58.5 °F 54% 30.09 in 10.0 mi West 5.8 mph - N/A   Scattered Clouds
3:58 PM 73.0 °F 63.3 °F 71% 30.06 in 10.0 mi SW 12.7 mph - N/A   Partly Cloudy
4:42 PM 69.8 °F 62.6 °F 78% 30.02 in 10.0 mi WSW 10.4 mph - N/A Rain Light Rain
4:58 PM 68.7 °F 63.7 °F 84% 30.04 in 10.0 mi WSW 10.4 mph - 0.00 in Rain Light Rain
5:08 PM 68.0 °F 64.4 °F 88% 30.03 in 10.0 mi WSW 9.2 mph - N/A   Scattered Clouds
5:16 PM 66.2 °F 64.4 °F 94% 30.03 in 10.0 mi WSW 10.4 mph - N/A   Light Drizzle
5:26 PM 66.2 °F 64.4 °F 94% 30.03 in 10.0 mi SW 9.2 mph - N/A   Mostly Cloudy
5:56 PM 68.0 °F 64.4 °F 88% 30.02 in 10.0 mi SW 6.9 mph - N/A   Mostly Cloudy
6:58 PM 67.5 °F 63.5 °F 87% 30.03 in 10.0 mi WSW 5.8 mph - N/A   Overcast
7:58 PM 66.6 °F 62.8 °F 88% 30.02 in 10.0 mi SSW 4.6 mph - N/A   Overcast
8:58 PM 64.9 °F 62.8 °F 93% 30.04 in 10.0 mi Calm Calm - N/A   Mostly Cloudy
9:58 PM 64.9 °F 62.6 °F 92% 30.06 in 10.0 mi SW 4.6 mph - N/A   Mostly Cloudy
10:58 PM 64.0 °F 62.1 °F 93% 30.06 in 10.0 mi Calm Calm - N/A   Mostly Cloudy
11:58 PM 61.9 °F 60.4 °F 95% 30.06 in 10.0 mi NE 2.3 mph - N/A   Mostly Cloudy